Location: Newark
(27.9675°N, 86.8869°E)
Time: 08:34:41
(UTC+00:00)

Altair - Pass Details

Date: 30 October 2019
Orbit: 1502 x 1682 km, 47.2° (Epoch: 17 November)

Event Time Altitude Azimuth Distance (km) Brightness Sun altitude
Rises 08:35:14 0° 313° (NW) 4,801 10.2 33.2°
Reaches altitude 10° 08:38:23 10° 317° (NW) 3,838 9.7 32.7°
Maximum altitude 08:48:07 61° 36° (NE) 1,836 8.1 31.1°
Drops below altitude 10° 08:58:06 10° 116° (ESE) 3,932 9.5 29.3°
Sets 09:01:20 0° 119° (ESE) 4,924 9.9 28.8°
